This demonstration page uses our WeatherBlox Daily Observations layout. Learn more.

Left ArrowRight Arrow

Hourly Observations for November 21, 2018

Temp ( °F °C ) Dew Point ( °F °C ) Humidity (%) Winds ( mph kmh ) Pressure ( in mb ) Visibility ( mi km ) Precip ( " mm )
12:57 am 00:57 Clear 32 0 25 -3.9 75 75 W 3 6 30.16 1021 10 16 0.00 0.00
1:57 am 01:57 Clear 27 -2.8 24 -4.4 89 89 Calm 30.16 1021 10 16 0.00 0.00
2:57 am 02:57 Clear 29 -1.7 24 -4.4 82 82 Calm 30.16 1021 10 16 0.00 0.00
3:57 am 03:57 Clear 29 -1.7 25 -3.9 85 85 WSW 6 9 30.15 1021 10 16 0.00 0.00
4:57 am 04:57 Clear 28 -2.2 24 -4.4 85 85 W 7 11 30.16 1021 10 16 0.00 0.00
5:57 am 05:57 Clear 27 -2.8 22 -5.6 81 81 WNW 5 7 30.18 1022 10 16 0.00 0.00
6:57 am 06:57 Clear 24 -4.4 21 -6.1 88 88 WSW 3 6 30.19 1023 10 16 0.00 0.00
7:57 am 07:57 Sunny 26 -3.3 23 -5 88 88 SW 6 9 30.21 1023 10 16 0.00 0.00
8:57 am 08:57 Sunny 33 0.6 27 -2.8 78 78 Calm 30.20 1023 10 16 0.00 0.00
9:57 am 09:57 Sunny 42 5.6 29 -1.7 60 60 Calm 30.20 1023 10 16 0.00 0.00
10:57 am 10:57 Sunny 49 9.4 31 -0.6 50 50 SW 7 11 30.20 1023 10 16 0.00 0.00
11:57 am 11:57 Sunny 54 12.2 31 -0.6 42 42 SW 10 17 30.17 1022 10 16 0.00 0.00
12:57 pm 12:57 Sunny 58 14.4 30 -1.1 35 35 SW 12 19 30.15 1021 10 16 0.00 0.00
1:57 pm 13:57 Sunny 60 15.6 29 -1.7 31 31 SW 13 20 30.14 1021 10 16 0.00 0.00
2:57 pm 14:57 Sunny 61 16.1 29 -1.7 30 30 SW 15 24 30.11 1020 10 16 0.00 0.00
3:57 pm 15:57 Sunny 60 15.6 29 -1.7 31 31 SW 10 17 30.11 1020 10 16 0.00 0.00
4:57 pm 16:57 Sunny 55 12.8 30 -1.1 38 38 SSW 9 15 30.12 1020 10 16 0.00 0.00
5:57 pm 17:57 Clear 46 7.8 29 -1.7 51 51 S 9 15 30.13 1020 10 16 0.00 0.00
6:57 pm 18:57 Clear 44 6.7 29 -1.7 55 55 S 8 13 30.15 1021 10 16 0.00 0.00
7:57 pm 19:57 Clear 44 6.7 29 -1.7 55 55 SSW 10 17 30.16 1021 10 16 0.00 0.00
8:57 pm 20:57 Clear 43 6.1 29 -1.7 58 58 SSW 12 19 30.14 1021 10 16 0.00 0.00
9:57 pm 21:57 Clear 42 5.6 30 -1.1 62 62 SW 9 15 30.14 1021 10 16 0.00 0.00
10:57 pm 22:57 Clear 39 3.9 28 -2.2 65 65 SW 8 13 30.13 1020 10 16 0.00 0.00
11:57 pm 23:57 Clear 40 4.4 27 -2.8 60 60 SW 12 19 30.11 1020 10 16 0.00 0.00

Powered by AerisWeather